Home   Weather   Kuching   Past weeks

Flag for Malaysia Past Weather in Kuching, Malaysia — Yesterday and Last 2 Weeks

Now
81 °F

Sprinkles. Broken clouds.


Feels Like: 87 °F
Forecast: 80 / 88 °F
Wind: 8 mph from Northeast

Location: Kuching Airport

Current Time: Feb 28, 2017 at 3:53:39 pm

Latest Report: Feb 28, 2017 at 3:00 pm


Visibility: 5 mi

Pressure: 29.74 "Hg

Humidity: 89%

Dew Point: 77 °F

Location of KuchingLocation

Past Weather in Kuching — Graph

°F

Kuching Temperature Yesterday

Maximum temperature yesterday: 88 °F (at 3:00 pm)
Minimum temperature yesterday: 75 °F (at 4:30 am)
Average temperature yesterday: 80 °F

High & Low Weather Summary for the Past Weeks

 TemperatureHumidityPressure
High90 °F (Feb 20, 1:30 pm)100% (Feb 13, 8:30 pm)29.98 "Hg (Feb 13, 8:30 pm)
Low73 °F (Feb 13, 10:00 pm)52% (Feb 26, 3:30 pm)29.71 "Hg (Feb 26, 4:00 pm)
Average79 °F86%29.85 "Hg
* Reported Feb 13 2:00 pm — Feb 28 2:30 pm, Kuching, Weather by CustomWeather, © 2017

Note: Actual official high and low records may vary slightly from our data, if they occured in-between our weather recording intervals... More about our weather records

Advertising

Kuching Weather History for the Previous 24 Hours

Scroll right to see more
 ConditionsComfort  
Time TempWeatherWind HumidityBarometerVisibility
2:30 pm
Tue, Feb 28
82 °FBroken clouds.9 mph79%29.74 "HgN/A
2:00 pm82 °FBroken clouds.9 mph79%29.77 "HgN/A
1:30 pm86 °FBroken clouds.5 mph70%29.77 "HgN/A
1:00 pm84 °FBroken clouds.3 mph74%29.80 "HgN/A
12:30 pm84 °FBroken clouds.3 mph74%29.80 "HgN/A
12:00 pm84 °FBroken clouds.1 mph74%29.83 "HgN/A
11:30 am82 °FBroken clouds.3 mph84%29.83 "HgN/A
11:00 am82 °FBroken clouds.5 mph79%29.83 "HgN/A
10:30 am81 °FBroken clouds.2 mph89%29.86 "HgN/A
10:00 am79 °FBroken clouds.1 mph89%29.86 "HgN/A
9:30 am79 °FLight rain. Broken clouds.1 mph89%29.86 "Hg5 mi
9:00 am77 °FThunderstorms. Broken clouds.2 mph94%29.86 "Hg5 mi
8:30 am77 °FThunderstorms. Broken clouds.2 mph94%29.83 "Hg5 mi
8:00 am77 °FThunderstorms. Broken clouds.3 mph94%29.83 "HgN/A
7:30 am75 °FBroken clouds.1 mph100%29.83 "HgN/A
7:00 am75 °FBroken clouds.2 mph100%29.83 "HgN/A
6:30 am75 °FPartly cloudy.1 mph100%29.80 "HgN/A
6:00 am75 °FPartly cloudy.5 mph94%29.80 "HgN/A
5:30 am75 °FPartly cloudy.2 mph94%29.80 "HgN/A
5:00 am75 °FPartly cloudy.2 mph94%29.80 "HgN/A
4:30 am75 °FThunderstorms. Partly cloudy.3 mph100%29.80 "Hg4 mi
4:00 am75 °FThunderstorms. Partly cloudy.2 mph100%29.80 "Hg4 mi
3:30 am75 °FThunderstorms. Partly cloudy.3 mph100%29.80 "Hg4 mi
3:00 am75 °FThunderstorms. Partly cloudy.3 mph100%29.80 "Hg4 mi
2:30 am75 °FThunderstorms. Partly cloudy.2 mph100%29.80 "Hg4 mi
2:00 am75 °FThunderstorms. Partly cloudy.2 mph100%29.83 "Hg4 mi
1:30 am75 °FLight rain. Partly cloudy.1 mph100%29.80 "Hg4 mi
1:00 am75 °FThunderstorms. Partly cloudy.3 mph100%29.83 "Hg4 mi
12:30 am77 °FThunderstorms. Partly cloudy.3 mph94%29.83 "Hg3 mi
12:00 am77 °FThunderstorms. Partly cloudy.3 mph94%29.86 "Hg3 mi
11:30 pm
Mon, Feb 27
77 °FThunderstorms. Partly cloudy.5 mph94%29.86 "Hg3 mi
11:00 pm79 °FThunderstorms. Partly cloudy.1 mph94%29.83 "Hg4 mi
10:30 pm79 °FThunderstorms. Partly cloudy.2 mph89%29.83 "Hg5 mi
10:00 pm79 °FPartly cloudy.3 mph89%29.83 "HgN/A
9:30 pm79 °FPartly cloudy.3 mph94%29.83 "HgN/A
9:00 pm79 °FPartly cloudy.2 mph94%29.83 "HgN/A
8:30 pm79 °FPartly cloudy.5 mph94%29.80 "HgN/A
8:00 pm81 °FPartly cloudy.1 mph89%29.80 "HgN/A
7:30 pm81 °FPartly cloudy.1 mph89%29.77 "HgN/A
7:00 pm81 °FLight rain. Partly cloudy.5 mph89%29.77 "Hg4 mi
6:30 pm82 °FBroken clouds.6 mph79%29.77 "HgN/A
6:00 pm84 °FBroken clouds.7 mph74%29.74 "HgN/A
5:30 pm84 °FBroken clouds.10 mph70%29.74 "HgN/A
5:00 pm86 °FBroken clouds.9 mph66%29.74 "HgN/A
4:30 pm88 °FBroken clouds.10 mph62%29.74 "HgN/A
4:00 pm88 °FBroken clouds.10 mph62%29.74 "HgN/A
3:30 pm88 °FBroken clouds.10 mph66%29.74 "HgN/A
3:00 pm88 °FBroken clouds.7 mph66%29.74 "HgN/A
Weather by CustomWeather, © 2017

See weather overviewHow to use our weather pages